#timestamp,LO_Frequency,Hit,StdDev 
1609765215.6,286046998.6,N
1609765235.4,286046998.4,N
1609765255.2,286046998.5,N
1609765275.1,286046998.3,N
1609765276.0,286046998.3,N
1609765295.8,286046996.5,N
1609765315.7,286046999.0,N
1609765335.5,286046998.9,N
1609765355.3,286046999.4,N
1609765375.2,286047000.8,N
1609765395.9,286046998.4,N
1609765415.7,286046998.6,N
1609765435.6,286046999.8,N
1609765455.4,286047000.1,N
1609765475.2,286047002.8,N
1609765495.1,286047000.1,N
1609765496.0,286047000.1,N
1609765515.8,286047003.5,N
1609765535.7,286047000.6,N
1609765555.5,286046999.9,N
1609765575.3,286047000.0,N
1609765595.2,286047000.9,N
1609765615.0,286046998.1,N
1609765615.9,286046998.1,N
1609765635.8,286046999.9,N
1609765655.6,286046999.8,N
1609765675.4,286046999.9,N
1609765695.3,286047002.4,N
1609765715.1,286047004.4,N
1609765735.8,286047002.0,N
1609765755.7,286047003.8,N
1609765775.5,286047003.8,N
1609765795.4,286047004.4,N
1609765815.2,286047003.7,N
1609765835.0,286047004.0,N
1609765835.9,286047004.0,N
1609765855.8,286047002.1,N
1609765875.6,286047001.3,N
1609765895.4,286047003.8,N
1609765915.3,286047001.3,N
1609765935.1,286047002.0,N
1609765955.9,286047002.0,N
1609765975.7,286047004.4,N
1609765995.5,286047001.7,N
1609766015.4,286047002.4,N
1609766035.2,286047002.4,N
1609766055.1,286047002.6,N
1609766086.0,286047002.5,E
1609766095.9,286047002.8,N
1609766115.7,286047001.2,P
1609766135.6,286047000.6,N
1609766155.4,286047002.7,N
1609766175.2,286047001.5,N
1609766195.1,286047002.5,N
1609766196.0,286047002.5,N
1609766215.8,286047000.5,N
1609766235.7,286047000.8,N
1609766255.5,286046998.5,N
1609766275.3,286046998.7,N
1609766295.2,286046999.4,N
1609766315.0,286046998.3,N
1609766315.9,286046998.3,N
1609766335.8,286046998.6,N
1609766355.6,286047000.8,N
1609766375.4,286046998.4,N
1609766395.3,286046998.7,N
1609766415.1,286046998.3,N
1609766435.8,286046996.8,N
1609766455.7,286046998.4,N
1609766475.5,286046998.2,N
1609766495.3,286046998.5,N
1609766515.2,286047000.5,N
1609766535.0,286047001.6,N
1609766535.9,286047001.6,N
1609766555.8,286046999.7,N
1609766575.6,286047000.2,N
1609766595.4,286047004.2,N
1609766615.3,286047000.0,N
1609766635.1,286046998.9,N
1609766655.9,286046999.0,N
1609766675.7,286046998.6,N
1609766695.5,286046998.3,N
1609766715.4,286046998.1,N
1609766735.2,286047000.7,N
1609766755.0,286047000.9,N
1609766755.9,286047000.9,N
1609766775.8,286047000.7,N
1609766795.6,286046998.1,N
1609766815.4,286046998.6,N
1609766835.3,286046998.4,N
1609766855.1,286046998.7,N
1609766875.9,286046998.9,N
1609766895.7,286047000.0,N
1609766915.5,286047002.3,N
1609766935.4,286046999.7,N
1609766955.2,286047001.2,N
1609766975.0,286047001.1,N
1609766976.0,286047001.1,N
1609766995.8,286047002.7,N
1609767015.6,286047002.4,N
1609767035.5,286047000.7,N
1609767055.3,286047000.8,N
1609767075.2,286047000.1,N
1609767095.9,286046999.7,N
1609767115.8,286047000.6,N
1609767135.6,286046998.4,N
1609767155.4,286046999.4,N
1609767175.3,286046998.5,N
1609767195.1,286046998.4,N
1609767215.9,286046998.7,N
1609767235.7,286047000.5,N
1609767255.5,286046998.6,N
1609767275.4,286046999.3,N
1609767295.2,286046998.7,N
1609767315.0,286046996.6,N
1609767315.9,286046996.6,N
1609767335.8,286046996.5,N
1609767355.6,286046997.7,N
1609767375.5,286046997.4,N
1609767395.3,286046997.8,N
1609767415.1,286046996.7,N
1609767435.9,286046996.5,N
1609767455.7,286046999.4,N
1609767475.5,286046996.6,N
1609767495.4,286046996.5,N
1609767515.2,286046998.3,N
1609767535.1,286046998.6,N
1609767536.0,286046998.6,N
1609767555.8,286046999.4,N
1609767575.6,286046998.1,N
1609767595.5,286046999.9,N
1609767615.3,286046998.8,N
1609767635.2,286046996.6,N
1609767655.0,286046997.1,N
1609767655.9,286046997.1,N
1609767675.8,286046999.5,N
1609767695.6,286046997.0,N
1609767715.4,286046998.9,N
1609767735.3,286046999.3,N
1609767755.1,286047002.7,N
1609767775.9,286047002.5,N
1609767795.7,286047002.6,N
1609767815.5,286047002.5,N
1609767835.4,286046999.7,N
1609767855.2,286047002.4,N
1609767875.0,286047000.6,N
1609767875.9,286047000.6,N
1609767895.8,286046998.3,N
1609767915.6,286046998.6,N
1609767935.5,286047001.2,N
1609767955.3,286046998.3,N
1609767975.1,286047001.1,N
1609767995.9,286047001.1,N
1609768015.7,286046998.7,N
1609768035.5,286046999.4,N
1609768055.4,286046999.6,N
1609768075.2,286046997.1,N
1609768095.1,286046997.1,N
1609768096.0,286046997.1,N
1609768115.8,286046998.1,N
1609768135.6,286046998.4,N
1609768155.5,286046998.2,N
1609768175.3,286047000.5,N
1609768195.2,286047001.2,N
1609768215.9,286047001.0,N
1609768235.7,286047000.4,N
1609768255.6,286047000.2,N
1609768275.4,286047001.1,N
1609768295.3,286047000.4,N
1609768315.1,286047002.4,N
1609768316.0,286047002.4,N
1609768335.8,286047001.0,N
1609768355.7,286047000.9,N
1609768375.5,286047000.8,N
1609768395.3,286046999.7,N
1609768415.2,286047000.3,N
1609768435.0,286047000.4,N
1609768435.9,286047000.4,N
1609768455.8,286047000.2,N
1609768475.6,286047000.5,N
1609768495.5,286047001.1,N
1609768515.3,286046999.3,N
1609768535.1,286046996.8,N
1609768555.9,286046999.3,N
1609768575.7,286046996.7,N
1609768595.5,286046999.1,N
1609768615.4,286047000.8,N
1609768635.2,286047001.0,N
1609768655.1,286047000.3,N
1609768656.0,286047000.3,N
1609768675.8,286047001.0,N
1609768695.6,286047000.2,N
1609768715.5,286046998.2,N
1609768735.3,286047001.1,N
1609768755.1,286047002.8,N
1609768775.9,286047000.9,N
1609768795.7,286047000.7,N
